#timestamp,LO_Frequency,Hit,StdDev 
1629306015.4,286046999.8,N
1629306035.3,286046999.7,N
1629306055.1,286047002.6,N
1629306075.8,286047000.2,N
1629306095.7,286047000.3,N
1629306115.5,286047000.5,N
1629306135.4,286046999.8,N
1629306155.2,286047000.0,N
1629306175.0,286047000.6,N
1629306175.9,286047000.6,N
1629306195.8,286046998.1,N
1629306215.6,286046998.1,N
1629306235.4,286047001.2,N
1629306255.3,286047001.0,N
1629306275.1,286047000.3,N
1629306295.9,286047001.1,N
1629306315.7,286047001.2,N
1629306335.5,286047000.0,N
1629306355.4,286046998.5,N
1629306375.2,286047000.3,N
1629306395.0,286047000.0,N
1629306396.0,286047000.0,N
1629306415.8,286047000.3,N
1629306435.6,286047000.5,N
1629306455.5,286047000.6,N
1629306475.3,286047000.0,N
1629306495.1,286047002.8,N
1629306515.9,286047002.7,N
1629306535.7,286047002.2,N
1629306555.5,286047000.1,N
1629306575.4,286047000.2,N
1629306595.2,286047002.4,N
1629306615.1,286047000.8,N
1629306616.0,286047000.8,N
1629306635.8,286047000.2,N
1629306655.6,286047002.3,N
1629306675.5,286046999.7,N
1629306695.3,286047000.1,N
1629306715.1,286047000.7,N
1629306735.9,286047002.2,N
1629306755.7,286046999.7,N
1629306775.6,286047001.0,N
1629306795.4,286047000.4,N
1629306815.2,286047002.4,N
1629306835.1,286047000.4,N
1629306836.0,286047000.4,N
1629306855.8,286047000.8,N
1629306875.7,286047000.4,N
1629306895.5,286047000.1,N
1629306915.3,286046998.1,N
1629306935.2,286047001.1,N
1629306955.9,286046998.2,N
1629306975.7,286047000.7,N
1629306995.6,286047000.5,N
1629307015.4,286046999.3,N
1629307035.3,286046998.1,N
1629307055.1,286046998.5,N
1629307056.0,286046998.5,N
1629307075.8,286046999.1,N
1629307095.7,286046997.0,N
1629307115.5,286046995.4,Y
1629307135.3,286046997.6,P
1629307155.2,286046997.9,N
1629307175.0,286046995.5,P
1629307175.9,286046995.5,N
1629307195.8,286046993.4,Y
1629307215.6,286046999.4,P
1629307235.4,286047000.7,N
1629307255.3,286047000.9,N
1629307275.1,286047000.4,N
1629307295.9,286047000.9,N
1629307315.7,286046998.8,N
1629307335.5,286046999.3,N
1629307355.4,286046998.2,N
1629307375.2,286047000.4,N
1629307395.0,286047002.8,N
1629307395.9,286047002.8,N
1629307415.8,286047002.0,N
1629307435.6,286047001.8,N
1629307455.5,286047002.2,N
1629307475.3,286047000.8,N
1629307495.1,286046998.7,N
1629307515.9,286046999.6,N
1629307535.7,286046999.5,N
1629307555.5,286046999.2,N
1629307575.4,286046999.0,N
1629307595.2,286046998.9,N
1629307615.1,286046998.5,N
1629307616.0,286046998.5,N
1629307635.8,286046999.6,N
1629307655.6,286046998.7,N
1629307675.5,286047000.6,N
1629307725.3,286046998.2,E
1629307735.3,286046998.3,N
1629307755.1,286047002.0,P
1629307756.0,286047002.0,N
1629307775.8,286046999.9,N
1629307795.7,286047000.6,N
1629307815.5,286047000.8,N
1629307835.3,286046998.4,N
1629307855.2,286046998.9,N
1629307875.0,286046998.3,N
1629307875.9,286046998.3,N
1629307895.8,286047000.7,N
1629307915.6,286046998.2,N
1629307935.4,286046998.4,N
1629307955.3,286046999.1,N
1629307975.1,286046999.3,N
1629307995.9,286047000.7,N
1629308015.7,286046999.3,N
1629308035.5,286046999.6,N
1629308055.4,286046996.5,N
1629308075.2,286046998.8,N
1629308095.0,286046996.5,N
1629308095.9,286046996.5,N
1629308115.8,286046997.5,N
1629308135.6,286046997.7,N
1629308155.5,286046997.0,N
1629308175.3,286046999.6,N
1629308195.1,286046997.0,N
1629308215.9,286046997.1,N
1629308235.7,286046996.8,N
1629308255.5,286046997.3,N
1629308275.4,286046995.5,N
1629308295.2,286046993.8,Y
1629308315.1,286046997.5,P
1629308316.0,286046997.5,P
1629308335.8,286046995.1,P
1629308355.6,286046997.8,N
1629308375.5,286046996.8,N
1629308395.3,286046999.4,N
1629308415.1,286046996.9,N
1629308435.9,286046999.1,N
1629308455.7,286046999.4,N
1629308475.6,286046997.2,N
1629308495.4,286046997.3,N
1629308515.2,286046997.4,N
1629308535.1,286046999.1,N
1629308536.0,286046999.1,N
1629308555.8,286046996.7,N
1629308575.6,286046997.6,N
1629308595.5,286046997.3,N
1629308615.3,286046997.0,N
1629308635.2,286046996.8,N
1629308655.9,286046999.6,N
1629308675.7,286046996.5,Y
1629308695.6,286047001.0,P
1629308715.4,286046998.2,N
1629308735.3,286047000.9,N
1629308755.1,286046998.9,N
1629308756.0,286046998.9,N
1629308775.8,286047001.0,N
1629308795.7,286046998.3,N
1629308815.5,286046999.4,N
1629308835.3,286046998.2,N
1629308855.2,286047000.1,N
1629308875.0,286047001.1,N
1629308875.9,286047001.1,N
1629308895.8,286047000.8,N
1629308915.6,286046998.2,N
1629308935.4,286046999.7,N
1629308955.3,286047000.3,N
1629308975.1,286047000.3,N
1629308995.8,286047000.7,N
1629309015.7,286047001.1,N
1629309035.5,286046998.5,N
1629309055.4,286047001.1,N
1629309075.2,286047001.0,N
1629309095.0,286047000.8,N
1629309095.9,286047000.8,N
1629309115.8,286047000.5,N
1629309135.6,286047000.7,N
1629309155.4,286046999.2,N
1629309175.3,286046996.6,Y
1629309195.1,286046998.9,P
1629309215.9,286047001.2,N
1629309235.7,286047002.8,N
1629309255.5,286047001.6,N
1629309275.4,286047002.5,N
1629309295.2,286047002.3,N
1629309315.1,286047001.9,N
1629309316.0,286047001.9,N
1629309335.8,286047001.7,N
1629309355.6,286047005.5,Y
1629309375.5,286047003.1,P
1629309395.3,286047003.3,P
1629309415.2,286047003.2,P
1629309435.9,286047003.7,Y
1629309455.7,286046999.9,P
1629309475.6,286047002.3,N
1629309495.4,286047002.6,N
1629309515.2,286047002.3,N
1629309535.1,286047000.8,N
1629309536.0,286047000.8,N
1629309555.8,286046998.8,N
1629309575.7,286046998.8,N
1629309595.5,286046999.6,N
